Year,Month,Day,Hour,Minute,Value (Times are PST for temperature in C)
2018,07,18,00,00,21.60
2018,07,18,00,01,21.60
2018,07,18,00,02,21.50
2018,07,18,00,03,21.50
2018,07,18,00,04,21.50
2018,07,18,00,05,21.40
2018,07,18,00,06,21.40
2018,07,18,00,07,21.40
2018,07,18,00,08,21.40
2018,07,18,00,09,21.30
2018,07,18,00,10,21.30
2018,07,18,00,11,21.30
2018,07,18,00,12,21.30
2018,07,18,00,13,21.30
2018,07,18,00,14,21.30
2018,07,18,00,15,21.30
2018,07,18,00,16,21.30
2018,07,18,00,17,21.30
2018,07,18,00,18,21.20
2018,07,18,00,19,21.20
2018,07,18,00,20,21.20
2018,07,18,00,21,21.20
2018,07,18,00,22,21.20
2018,07,18,00,23,21.20
2018,07,18,00,24,21.10
2018,07,18,00,25,21.10
2018,07,18,00,26,21.10
2018,07,18,00,27,21.10
2018,07,18,00,28,21.10
2018,07,18,00,29,21.10
2018,07,18,00,30,21.10
2018,07,18,00,31,21.10
2018,07,18,00,32,21.10
2018,07,18,00,33,21.10
2018,07,18,00,34,21.00
2018,07,18,00,35,21.00
2018,07,18,00,36,21.00
2018,07,18,00,37,20.90
2018,07,18,00,38,20.90
2018,07,18,00,39,20.90
2018,07,18,00,40,20.90
2018,07,18,00,41,20.90
2018,07,18,00,42,20.90
2018,07,18,00,43,20.80
2018,07,18,00,44,20.80
2018,07,18,00,45,20.80
2018,07,18,00,46,20.80
2018,07,18,00,47,20.80
2018,07,18,00,48,20.80
2018,07,18,00,49,20.70
2018,07,18,00,50,20.70
2018,07,18,00,51,20.70
2018,07,18,00,52,20.70
2018,07,18,00,53,20.70
2018,07,18,00,54,20.70
2018,07,18,00,55,20.70
2018,07,18,00,56,20.70
2018,07,18,00,57,20.70
2018,07,18,00,58,20.60
2018,07,18,00,59,20.60
2018,07,18,01,00,20.60
2018,07,18,01,01,20.60
2018,07,18,01,02,20.50
2018,07,18,01,03,20.40
2018,07,18,01,04,20.40
2018,07,18,01,05,20.40
2018,07,18,01,06,20.40
2018,07,18,01,07,20.40
2018,07,18,01,08,20.30
2018,07,18,01,09,20.30
2018,07,18,01,10,20.30
2018,07,18,01,11,20.30
2018,07,18,01,12,20.30
2018,07,18,01,13,20.30
2018,07,18,01,14,20.20
2018,07,18,01,15,20.20
2018,07,18,01,16,20.20
2018,07,18,01,17,20.20
2018,07,18,01,18,20.20
2018,07,18,01,19,20.20
2018,07,18,01,20,20.20
2018,07,18,01,21,20.20
2018,07,18,01,22,20.20
2018,07,18,01,23,20.20
2018,07,18,01,24,20.20
2018,07,18,01,25,20.20
2018,07,18,01,26,20.10
2018,07,18,01,27,20.10
2018,07,18,01,28,20.10
2018,07,18,01,29,20.10
2018,07,18,01,30,20.10
2018,07,18,01,31,20.10
2018,07,18,01,32,20.00
2018,07,18,01,33,20.00
2018,07,18,01,34,20.00
2018,07,18,01,35,19.90
2018,07,18,01,36,19.90
2018,07,18,01,37,19.90
2018,07,18,01,38,19.90
2018,07,18,01,39,19.90
2018,07,18,01,40,19.90
2018,07,18,01,41,19.80
2018,07,18,01,42,19.80
2018,07,18,01,43,19.80
2018,07,18,01,44,19.80
2018,07,18,01,45,19.80
2018,07,18,01,46,19.70
2018,07,18,01,47,19.70
2018,07,18,01,48,19.70
2018,07,18,01,49,19.70
2018,07,18,01,50,19.70
2018,07,18,01,51,19.60
2018,07,18,01,52,19.60
2018,07,18,01,53,19.60
2018,07,18,01,54,19.60
2018,07,18,01,55,19.60
2018,07,18,01,56,19.60
2018,07,18,01,57,19.50
2018,07,18,01,58,19.50
2018,07,18,01,59,19.50
2018,07,18,02,00,19.50
2018,07,18,02,01,19.40
2018,07,18,02,02,19.40
2018,07,18,02,03,19.40
2018,07,18,02,04,19.40
2018,07,18,02,05,19.40
2018,07,18,02,06,19.40
2018,07,18,02,07,19.40
2018,07,18,02,08,19.40
2018,07,18,02,09,19.30
2018,07,18,02,10,19.30
2018,07,18,02,11,19.30
2018,07,18,02,12,19.30
2018,07,18,02,13,19.30
2018,07,18,02,14,19.30
2018,07,18,02,15,19.30
2018,07,18,02,16,19.20
2018,07,18,02,17,19.20
2018,07,18,02,18,19.20
2018,07,18,02,19,19.20
2018,07,18,02,20,19.20
2018,07,18,02,21,19.20
2018,07,18,02,22,19.20
2018,07,18,02,23,19.20
2018,07,18,02,24,19.20
2018,07,18,02,25,19.20
2018,07,18,02,26,19.20
2018,07,18,02,27,19.20
2018,07,18,02,28,19.20
2018,07,18,02,29,19.30
2018,07,18,02,30,19.30
2018,07,18,02,31,19.30
2018,07,18,02,32,19.30
2018,07,18,02,33,19.40
2018,07,18,02,34,19.40
2018,07,18,02,35,19.50
2018,07,18,02,36,19.50
2018,07,18,02,37,19.60
2018,07,18,02,38,19.60
2018,07,18,02,39,19.70
2018,07,18,02,40,19.70
2018,07,18,02,41,19.70
2018,07,18,02,42,19.80
2018,07,18,02,43,19.80
2018,07,18,02,44,19.80
2018,07,18,02,45,19.80
2018,07,18,02,46,19.90
2018,07,18,02,47,19.90
2018,07,18,02,48,19.90
2018,07,18,02,49,20.00
2018,07,18,02,50,20.00
2018,07,18,02,51,20.10
2018,07,18,02,52,20.10
2018,07,18,02,53,20.10
2018,07,18,02,54,20.10
2018,07,18,02,55,20.10
2018,07,18,02,56,20.10
2018,07,18,02,57,20.10
2018,07,18,02,58,20.10
2018,07,18,02,59,20.20
2018,07,18,03,00,20.20
2018,07,18,03,01,20.20
2018,07,18,03,02,20.20
2018,07,18,03,06,20.10
2018,07,18,03,07,20.10
2018,07,18,03,08,20.00
2018,07,18,03,09,20.00
2018,07,18,03,10,20.00
2018,07,18,03,11,19.90
2018,07,18,03,12,19.90
2018,07,18,03,13,19.90
2018,07,18,03,14,19.90
2018,07,18,03,15,19.80
2018,07,18,03,16,19.80
2018,07,18,03,17,19.80
2018,07,18,03,18,19.70
2018,07,18,03,19,19.70
2018,07,18,03,20,19.70
2018,07,18,03,21,19.70
2018,07,18,03,22,19.60
2018,07,18,03,23,19.60
2018,07,18,03,24,19.60
2018,07,18,03,25,19.60
2018,07,18,03,26,19.50
2018,07,18,03,27,19.50
2018,07,18,03,28,19.50
2018,07,18,03,29,19.50
2018,07,18,03,30,19.50
2018,07,18,03,31,19.40
2018,07,18,03,32,19.40
2018,07,18,03,33,19.40
2018,07,18,03,34,19.40
2018,07,18,03,35,19.40
2018,07,18,03,36,19.30
2018,07,18,03,37,19.30
2018,07,18,03,38,19.30
2018,07,18,03,39,19.30
2018,07,18,03,40,19.30
2018,07,18,03,41,19.20
2018,07,18,03,42,19.20
2018,07,18,03,43,19.20
2018,07,18,03,44,19.20
2018,07,18,03,45,19.20
2018,07,18,03,46,19.20
2018,07,18,03,47,19.20
2018,07,18,03,48,19.20
2018,07,18,03,49,19.20
2018,07,18,03,50,19.20
2018,07,18,03,51,19.20
2018,07,18,03,52,19.20
2018,07,18,03,53,19.20
2018,07,18,03,54,19.20
2018,07,18,03,55,19.20
2018,07,18,03,56,19.20
2018,07,18,03,57,19.20
2018,07,18,03,58,19.20
2018,07,18,03,59,19.20
2018,07,18,04,00,19.20
2018,07,18,04,01,19.20
2018,07,18,04,02,19.20
2018,07,18,04,03,19.20
2018,07,18,04,04,19.20
2018,07,18,04,05,19.20
2018,07,18,04,06,19.20
2018,07,18,04,07,19.20
2018,07,18,04,08,19.20
2018,07,18,04,09,19.20
2018,07,18,04,10,19.20
2018,07,18,04,11,19.20
2018,07,18,04,12,19.20
2018,07,18,04,13,19.20
2018,07,18,04,14,19.20
2018,07,18,04,15,19.10
2018,07,18,04,16,19.10
2018,07,18,04,17,19.10
2018,07,18,04,18,19.10
2018,07,18,04,19,19.10
2018,07,18,04,20,19.10
2018,07,18,04,21,19.10
2018,07,18,04,22,19.00
2018,07,18,04,23,19.00
2018,07,18,04,24,19.00
2018,07,18,04,25,18.90
2018,07,18,04,26,18.90
2018,07,18,04,27,18.90
2018,07,18,04,28,18.90
2018,07,18,04,29,18.80
2018,07,18,04,30,18.80
2018,07,18,04,31,18.80
2018,07,18,04,32,18.80
2018,07,18,04,33,18.70
2018,07,18,04,34,18.70
2018,07,18,04,35,18.70
2018,07,18,04,36,18.70
2018,07,18,04,37,18.60
2018,07,18,04,38,18.60
2018,07,18,04,39,18.60
2018,07,18,04,40,18.60
2018,07,18,04,41,18.60
2018,07,18,04,42,18.50
2018,07,18,04,43,18.50
2018,07,18,04,44,18.50
2018,07,18,04,45,18.40
2018,07,18,04,46,18.40
2018,07,18,04,47,18.40
2018,07,18,04,48,18.40
2018,07,18,04,49,18.40
2018,07,18,04,50,18.40
2018,07,18,04,51,18.40
2018,07,18,04,52,18.40
2018,07,18,04,53,18.40
2018,07,18,04,54,18.40
2018,07,18,04,55,18.40
2018,07,18,04,56,18.40
2018,07,18,04,57,18.40
2018,07,18,04,58,18.30
2018,07,18,04,59,18.30
2018,07,18,05,00,18.30
2018,07,18,05,01,18.30
2018,07,18,05,02,18.30
2018,07,18,05,03,18.30
2018,07,18,05,04,18.30
2018,07,18,05,05,18.20
2018,07,18,05,06,18.20
2018,07,18,05,07,18.20
2018,07,18,05,08,18.20
2018,07,18,05,09,18.20
2018,07,18,05,10,18.10
2018,07,18,05,11,18.10
2018,07,18,05,12,18.10
2018,07,18,05,13,18.10
2018,07,18,05,14,18.00
2018,07,18,05,15,18.00
2018,07,18,05,16,18.00
2018,07,18,05,17,17.90
2018,07,18,05,18,17.90
2018,07,18,05,19,17.90
2018,07,18,05,20,17.90
2018,07,18,05,21,17.80
2018,07,18,05,22,17.80
2018,07,18,05,23,17.80
2018,07,18,05,24,17.80
2018,07,18,05,25,17.80
2018,07,18,05,26,17.70
2018,07,18,05,27,17.70
2018,07,18,05,28,17.70
2018,07,18,05,29,17.70
2018,07,18,05,30,17.70
2018,07,18,05,31,17.70
2018,07,18,05,32,17.70
2018,07,18,05,33,17.70
2018,07,18,05,34,17.60
2018,07,18,05,35,17.60
2018,07,18,05,36,17.60
2018,07,18,05,37,17.60
2018,07,18,05,38,17.60
2018,07,18,05,39,17.60
2018,07,18,05,40,17.60
2018,07,18,05,41,17.60
2018,07,18,05,42,17.50
2018,07,18,05,43,17.40
2018,07,18,05,44,17.40
2018,07,18,05,45,17.40
2018,07,18,05,46,17.40
2018,07,18,05,47,17.30
2018,07,18,05,48,17.30
2018,07,18,05,49,17.30
2018,07,18,05,50,17.30
2018,07,18,05,51,17.30
2018,07,18,05,52,17.30
2018,07,18,05,53,17.30
2018,07,18,05,54,17.20
2018,07,18,05,55,17.20
2018,07,18,05,56,17.20
2018,07,18,05,57,17.20
2018,07,18,05,58,17.20
2018,07,18,05,59,17.20
2018,07,18,06,00,17.20
2018,07,18,06,01,17.20
2018,07,18,06,02,17.20
2018,07,18,06,03,17.20
2018,07,18,06,04,17.20
2018,07,18,06,05,17.20
2018,07,18,06,06,17.20
2018,07,18,06,07,17.20
2018,07,18,06,08,17.20
2018,07,18,06,09,17.20
2018,07,18,06,10,17.10
2018,07,18,06,11,17.10
2018,07,18,06,12,17.10
2018,07,18,06,13,17.10
2018,07,18,06,14,17.10
2018,07,18,06,15,17.10
2018,07,18,06,16,17.10
2018,07,18,06,17,17.10
2018,07,18,06,18,17.10
2018,07,18,06,19,17.10
2018,07,18,06,20,17.10
2018,07,18,06,21,17.10
2018,07,18,06,22,17.10
2018,07,18,06,23,17.10
2018,07,18,06,24,17.10
2018,07,18,06,25,17.10
2018,07,18,06,26,17.10
2018,07,18,06,27,17.10
2018,07,18,06,28,17.10
2018,07,18,06,29,17.10
2018,07,18,06,30,17.10
2018,07,18,06,31,17.10
2018,07,18,06,32,17.10
2018,07,18,06,33,17.10
2018,07,18,06,34,17.20
2018,07,18,06,35,17.20
2018,07,18,06,36,17.20
2018,07,18,06,37,17.20
2018,07,18,06,38,17.20
2018,07,18,06,39,17.20
2018,07,18,06,40,17.20
2018,07,18,06,41,17.30
2018,07,18,06,42,17.30
2018,07,18,06,43,17.30
2018,07,18,06,44,17.30
2018,07,18,06,45,17.30
2018,07,18,06,46,17.30
2018,07,18,06,47,17.40
2018,07,18,06,48,17.40
2018,07,18,06,49,17.50
2018,07,18,06,50,17.60
2018,07,18,06,51,17.60
2018,07,18,06,52,17.70
2018,07,18,06,53,17.80
2018,07,18,06,54,17.80
2018,07,18,06,55,17.80
2018,07,18,06,56,17.90
2018,07,18,06,57,17.90
2018,07,18,06,58,17.90
2018,07,18,06,59,17.90
2018,07,18,07,00,18.00
2018,07,18,07,01,18.00
2018,07,18,07,02,18.00
2018,07,18,07,03,18.10
2018,07,18,07,04,18.00
2018,07,18,07,05,18.00
2018,07,18,07,06,18.00
2018,07,18,07,07,18.00
2018,07,18,07,08,18.00
2018,07,18,07,09,18.00
2018,07,18,07,10,18.00
2018,07,18,07,11,18.00
2018,07,18,07,12,18.00
2018,07,18,07,13,18.10
2018,07,18,07,14,18.10
2018,07,18,07,15,18.10
2018,07,18,07,16,18.10
2018,07,18,07,17,18.10
2018,07,18,07,18,18.10
2018,07,18,07,19,18.10
2018,07,18,07,20,18.10
2018,07,18,07,21,18.20
2018,07,18,07,22,18.20
2018,07,18,07,23,18.20
2018,07,18,07,24,18.20
2018,07,18,07,25,18.20
2018,07,18,07,26,18.30
2018,07,18,07,27,18.30
2018,07,18,07,28,18.40
2018,07,18,07,29,18.40
2018,07,18,07,30,18.40
2018,07,18,07,31,18.40
2018,07,18,07,32,18.40
2018,07,18,07,33,18.40
2018,07,18,07,34,18.40
2018,07,18,07,35,18.40
2018,07,18,07,36,18.40
2018,07,18,07,37,18.40
2018,07,18,07,38,18.40
2018,07,18,07,39,18.40
2018,07,18,07,40,18.40
2018,07,18,07,41,18.40
2018,07,18,07,42,18.40
2018,07,18,07,43,18.40
2018,07,18,07,44,18.40
2018,07,18,07,45,18.40
2018,07,18,07,46,18.40
2018,07,18,07,47,18.40
2018,07,18,07,48,18.50
2018,07,18,07,49,18.50
2018,07,18,07,50,18.40
2018,07,18,07,51,18.40
2018,07,18,07,52,18.40
2018,07,18,07,53,18.50
2018,07,18,07,54,18.50
2018,07,18,07,55,18.60
2018,07,18,07,56,18.60
2018,07,18,07,57,18.60
2018,07,18,07,58,18.60
2018,07,18,07,59,18.60
2018,07,18,08,00,18.60
2018,07,18,08,01,18.60
2018,07,18,08,02,18.50
2018,07,18,08,03,18.50
2018,07,18,08,04,18.50
2018,07,18,08,05,18.50
2018,07,18,08,06,18.50
2018,07,18,08,07,18.60
2018,07,18,08,08,18.60
2018,07,18,08,09,18.60
2018,07,18,08,10,18.60
2018,07,18,08,11,18.60
2018,07,18,08,12,18.60
2018,07,18,08,13,18.70
2018,07,18,08,14,18.70
2018,07,18,08,15,18.80
2018,07,18,08,16,18.80
2018,07,18,08,17,18.80
2018,07,18,08,18,18.90
2018,07,18,08,19,18.90
2018,07,18,08,20,18.90
2018,07,18,08,21,18.90
2018,07,18,08,22,19.00
2018,07,18,08,23,19.00
2018,07,18,08,24,19.10
2018,07,18,08,25,19.10
2018,07,18,08,26,19.10
2018,07,18,08,27,19.20
2018,07,18,08,28,19.20
2018,07,18,08,29,19.30
2018,07,18,08,30,19.30
2018,07,18,08,31,19.30
2018,07,18,08,32,19.40
2018,07,18,08,33,19.40
2018,07,18,08,34,19.50
2018,07,18,08,35,19.50
2018,07,18,08,36,19.50
2018,07,18,08,37,19.60
2018,07,18,08,38,19.60
2018,07,18,08,39,19.60
2018,07,18,08,40,19.60
2018,07,18,08,41,19.60
2018,07,18,08,42,19.60
2018,07,18,08,43,19.60
2018,07,18,08,44,19.60
2018,07,18,08,45,19.60
2018,07,18,08,46,19.60
2018,07,18,08,47,19.60
2018,07,18,08,48,19.60
2018,07,18,08,49,19.60
2018,07,18,08,50,19.60
2018,07,18,08,51,19.60
2018,07,18,08,52,19.60
2018,07,18,08,53,19.70
2018,07,18,08,54,19.70
2018,07,18,08,55,19.80
2018,07,18,08,56,19.80
2018,07,18,08,57,19.90
2018,07,18,08,58,20.00
2018,07,18,08,59,20.00
2018,07,18,09,00,20.10
2018,07,18,09,01,20.10
2018,07,18,09,02,20.20
2018,07,18,09,03,20.30
2018,07,18,09,04,20.30
2018,07,18,09,05,20.30
2018,07,18,09,06,20.30
2018,07,18,09,07,20.30
2018,07,18,09,08,20.20
2018,07,18,09,09,20.20
2018,07,18,09,10,20.20
2018,07,18,09,11,20.30
2018,07,18,09,12,20.30
2018,07,18,09,13,20.40
2018,07,18,09,14,20.50
2018,07,18,09,15,20.50
2018,07,18,09,16,20.50
2018,07,18,09,17,20.40
2018,07,18,09,18,20.30
2018,07,18,09,19,20.30
2018,07,18,09,20,20.30
2018,07,18,09,21,20.30
2018,07,18,09,22,20.30
2018,07,18,09,23,20.30
2018,07,18,09,24,20.40
2018,07,18,09,25,20.40
2018,07,18,09,26,20.40
2018,07,18,09,27,20.40
2018,07,18,09,28,20.40
2018,07,18,09,29,20.40
2018,07,18,09,30,20.40
2018,07,18,09,31,20.40
2018,07,18,09,32,20.50
2018,07,18,09,33,20.60
2018,07,18,09,34,20.60
2018,07,18,09,35,20.60
2018,07,18,09,36,20.60
2018,07,18,09,37,20.60
2018,07,18,09,38,20.60
2018,07,18,09,39,20.50
2018,07,18,09,40,20.40
2018,07,18,09,41,20.30
2018,07,18,09,42,20.30
2018,07,18,09,43,20.30
2018,07,18,09,44,20.40
2018,07,18,09,45,20.50
2018,07,18,09,46,20.70
2018,07,18,09,47,20.80
2018,07,18,09,48,20.80
2018,07,18,09,49,20.70
2018,07,18,09,50,20.60
2018,07,18,09,51,20.50
2018,07,18,09,52,20.40
2018,07,18,09,53,20.40
2018,07,18,09,54,20.40
2018,07,18,09,55,20.30
2018,07,18,09,56,20.30
2018,07,18,09,57,20.20
2018,07,18,09,58,20.30
2018,07,18,09,59,20.30
2018,07,18,10,00,20.40
2018,07,18,10,01,20.50
2018,07,18,10,02,20.50
2018,07,18,10,03,20.60
2018,07,18,10,04,20.60
2018,07,18,10,05,20.70
2018,07,18,10,06,20.70
2018,07,18,10,07,20.80
2018,07,18,10,08,20.80
2018,07,18,10,09,20.70
2018,07,18,10,10,20.60
2018,07,18,10,11,20.50
2018,07,18,10,12,20.50
2018,07,18,10,13,20.50
2018,07,18,10,14,20.50
2018,07,18,10,15,20.40
2018,07,18,10,16,20.40
2018,07,18,10,17,20.40
2018,07,18,10,18,20.40
2018,07,18,10,19,20.40
2018,07,18,10,20,20.40
2018,07,18,10,21,20.40
2018,07,18,10,22,20.30
2018,07,18,10,23,20.30
2018,07,18,10,24,20.30
2018,07,18,10,25,20.30
2018,07,18,10,26,20.30
2018,07,18,10,27,20.50
2018,07,18,10,28,20.50
2018,07,18,10,29,20.60
2018,07,18,10,30,20.50
2018,07,18,10,31,20.50
2018,07,18,10,32,20.60
2018,07,18,10,33,20.70
2018,07,18,10,34,20.80
2018,07,18,10,35,20.70
2018,07,18,10,36,20.70
2018,07,18,10,37,20.70
2018,07,18,10,38,20.70
2018,07,18,10,39,20.80
2018,07,18,10,40,20.90
2018,07,18,10,41,21.00
2018,07,18,10,42,21.20
2018,07,18,10,43,21.30
2018,07,18,10,44,21.40
2018,07,18,10,45,21.50
2018,07,18,10,46,21.60
2018,07,18,10,47,21.60
2018,07,18,10,48,21.60
2018,07,18,10,49,21.60
2018,07,18,10,50,21.70
2018,07,18,10,51,21.70
2018,07,18,10,52,21.60
2018,07,18,10,53,21.40
2018,07,18,10,54,21.30
2018,07,18,10,55,21.30
2018,07,18,10,56,21.30
2018,07,18,10,57,21.40
2018,07,18,10,58,21.40
2018,07,18,10,59,21.40
2018,07,18,11,00,21.30
2018,07,18,11,01,21.10
2018,07,18,11,02,21.00
2018,07,18,11,03,21.00
2018,07,18,11,04,21.00
2018,07,18,11,05,21.10
2018,07,18,11,06,21.10
2018,07,18,11,07,21.10
2018,07,18,11,08,21.20
2018,07,18,11,09,21.20
2018,07,18,11,10,21.20
2018,07,18,11,11,21.10
2018,07,18,11,12,21.00
2018,07,18,11,13,21.00
2018,07,18,11,14,20.90
2018,07,18,11,15,20.80
2018,07,18,11,16,20.80
2018,07,18,11,17,20.80
2018,07,18,11,18,20.80
2018,07,18,11,19,20.80
2018,07,18,11,20,20.90
2018,07,18,11,21,20.90
2018,07,18,11,22,20.90
2018,07,18,11,23,21.00
2018,07,18,11,24,21.10
2018,07,18,11,25,21.20
2018,07,18,11,26,21.30
2018,07,18,11,27,21.30
2018,07,18,11,28,21.30
2018,07,18,11,29,21.20
2018,07,18,11,30,21.20
2018,07,18,11,31,21.20
2018,07,18,11,32,21.20
2018,07,18,11,33,21.20
2018,07,18,11,34,21.20
2018,07,18,11,35,21.30
2018,07,18,11,36,21.30
2018,07,18,11,37,21.40
2018,07,18,11,38,21.40
2018,07,18,11,39,21.50
2018,07,18,11,40,21.60
2018,07,18,11,41,21.60
2018,07,18,11,42,21.60
2018,07,18,11,43,21.60
2018,07,18,11,44,21.70
2018,07,18,11,45,21.80
2018,07,18,11,46,21.80
2018,07,18,11,47,21.80
2018,07,18,11,48,21.80
2018,07,18,11,49,21.80
2018,07,18,11,50,21.80
2018,07,18,11,51,21.70
2018,07,18,11,52,21.70
2018,07,18,11,53,21.80
2018,07,18,11,54,21.90
2018,07,18,11,55,21.90
2018,07,18,11,56,21.90
2018,07,18,11,57,21.90
2018,07,18,11,58,21.90
2018,07,18,11,59,21.90
2018,07,18,12,00,22.00
2018,07,18,12,01,22.10
2018,07,18,12,02,22.10
2018,07,18,12,03,22.10
2018,07,18,12,04,22.20
2018,07,18,12,05,22.20
2018,07,18,12,06,22.20
2018,07,18,12,07,22.10
2018,07,18,12,08,22.00
2018,07,18,12,09,22.00
2018,07,18,12,10,21.90
2018,07,18,12,11,22.00
2018,07,18,12,12,22.10
2018,07,18,12,13,22.20
2018,07,18,12,14,22.30
2018,07,18,12,15,22.40
2018,07,18,12,16,22.40
2018,07,18,12,17,22.50
2018,07,18,12,18,22.50
2018,07,18,12,19,22.50
2018,07,18,12,20,22.50
2018,07,18,12,21,22.40
2018,07,18,12,22,22.30
2018,07,18,12,23,22.30
2018,07,18,12,24,22.40
2018,07,18,12,25,22.40
2018,07,18,12,26,22.30
2018,07,18,12,27,22.30
2018,07,18,12,28,22.20
2018,07,18,12,29,22.20
2018,07,18,12,30,22.10
2018,07,18,12,31,22.00
2018,07,18,12,32,22.00
2018,07,18,12,33,22.00
2018,07,18,12,34,22.00
2018,07,18,12,35,22.00
2018,07,18,12,36,21.80
2018,07,18,12,37,21.80
2018,07,18,12,38,21.80
2018,07,18,12,39,21.90
2018,07,18,12,40,21.80
2018,07,18,12,41,21.90
2018,07,18,12,42,21.90
2018,07,18,12,43,21.90
2018,07,18,12,44,22.10
2018,07,18,12,45,22.10
2018,07,18,12,46,22.10
2018,07,18,12,47,22.10
2018,07,18,12,48,22.00
2018,07,18,12,49,22.00
2018,07,18,12,50,22.00
2018,07,18,12,51,22.00
2018,07,18,12,52,22.10
2018,07,18,12,53,22.10
2018,07,18,12,54,22.20
2018,07,18,12,55,22.20
2018,07,18,12,56,22.20
2018,07,18,12,57,22.20
2018,07,18,12,58,22.20
2018,07,18,12,59,22.20
2018,07,18,13,00,22.10
2018,07,18,13,01,22.10
2018,07,18,13,02,22.10
2018,07,18,13,03,22.20
2018,07,18,13,04,22.20
2018,07,18,13,05,22.20
2018,07,18,13,06,22.20
2018,07,18,13,07,22.30
2018,07,18,13,08,22.20
2018,07,18,13,09,22.20
2018,07,18,13,10,22.20
2018,07,18,13,11,22.20
2018,07,18,13,12,22.20
2018,07,18,13,13,22.20
2018,07,18,13,14,22.20
2018,07,18,13,15,22.20
2018,07,18,13,16,22.10
2018,07,18,13,17,22.00
2018,07,18,13,18,21.90
2018,07,18,13,19,21.90
2018,07,18,13,20,22.00
2018,07,18,13,21,22.10
2018,07,18,13,22,22.30
2018,07,18,13,23,22.30
2018,07,18,13,24,22.30
2018,07,18,13,25,22.30
2018,07,18,13,26,22.40
2018,07,18,13,27,22.50
2018,07,18,13,28,22.60
2018,07,18,13,29,22.70
2018,07,18,13,30,22.70
2018,07,18,13,31,22.70
2018,07,18,13,32,22.70
2018,07,18,13,33,22.80
2018,07,18,13,34,22.80
2018,07,18,13,35,22.80
2018,07,18,13,36,22.80
2018,07,18,13,37,22.80
2018,07,18,13,38,22.90
2018,07,18,13,39,23.00
2018,07,18,13,40,23.00
2018,07,18,13,41,22.90
2018,07,18,13,42,22.80
2018,07,18,13,43,22.80
2018,07,18,13,44,22.80
2018,07,18,13,45,22.80
2018,07,18,13,46,22.80
2018,07,18,13,47,22.70
2018,07,18,13,48,22.70
2018,07,18,13,49,22.70
2018,07,18,13,50,22.70
2018,07,18,13,51,22.80
2018,07,18,13,52,22.80
2018,07,18,13,53,22.70
2018,07,18,13,54,22.60
2018,07,18,13,55,22.60
2018,07,18,13,56,22.60
2018,07,18,13,57,22.70
2018,07,18,13,58,22.70
2018,07,18,13,59,22.70
2018,07,18,14,00,22.80
2018,07,18,14,01,22.80
2018,07,18,14,02,22.80
2018,07,18,14,03,22.70
2018,07,18,14,04,22.70
2018,07,18,14,05,22.60
2018,07,18,14,06,22.60
2018,07,18,14,07,22.70
2018,07,18,14,08,22.80
2018,07,18,14,09,22.90
2018,07,18,14,10,22.90
2018,07,18,14,11,22.90
2018,07,18,14,12,22.90
2018,07,18,14,13,23.00
2018,07,18,14,14,23.00
2018,07,18,14,15,23.00
2018,07,18,14,16,23.00
2018,07,18,14,17,23.00
2018,07,18,14,18,23.00
2018,07,18,14,19,23.10
2018,07,18,14,20,23.20
2018,07,18,14,21,23.10
2018,07,18,14,22,23.10
2018,07,18,14,23,23.10
2018,07,18,14,24,23.10
2018,07,18,14,25,23.00
2018,07,18,14,26,23.10
2018,07,18,14,27,23.20
2018,07,18,14,28,23.30
2018,07,18,14,29,23.30
2018,07,18,14,30,23.30
2018,07,18,14,31,23.30
2018,07,18,14,32,23.30
2018,07,18,14,33,23.20
2018,07,18,14,34,23.10
2018,07,18,14,35,23.10
2018,07,18,14,36,23.10
2018,07,18,14,37,23.10
2018,07,18,14,38,23.10
2018,07,18,14,39,23.10
2018,07,18,14,40,23.10
2018,07,18,14,41,23.00
2018,07,18,14,42,22.80
2018,07,18,14,43,22.80
2018,07,18,14,44,22.70
2018,07,18,14,45,22.70
2018,07,18,14,46,22.70
2018,07,18,14,47,22.70
2018,07,18,14,48,22.60
2018,07,18,14,49,22.60
2018,07,18,14,50,22.60
2018,07,18,14,51,22.60
2018,07,18,14,52,22.60
2018,07,18,14,53,22.60
2018,07,18,14,54,22.60
2018,07,18,14,55,22.70
2018,07,18,14,56,22.70
2018,07,18,14,57,22.80
2018,07,18,14,58,22.90
2018,07,18,14,59,23.00
2018,07,18,15,00,23.10
2018,07,18,15,01,23.20
2018,07,18,15,02,23.20
2018,07,18,15,03,23.20
2018,07,18,15,04,23.20
2018,07,18,15,05,23.20
2018,07,18,15,06,23.10
2018,07,18,15,07,23.10
2018,07,18,15,08,23.10
2018,07,18,15,09,23.10
2018,07,18,15,10,23.00
2018,07,18,15,11,22.90
2018,07,18,15,12,23.00
2018,07,18,15,13,23.00
2018,07,18,15,14,22.90
2018,07,18,15,15,23.00
2018,07,18,15,16,23.10
2018,07,18,15,17,23.20
2018,07,18,15,18,23.30
2018,07,18,15,19,23.40
2018,07,18,15,20,23.40
2018,07,18,15,21,23.30
2018,07,18,15,22,23.20
2018,07,18,15,23,23.10
2018,07,18,15,24,23.00
2018,07,18,15,25,23.00
2018,07,18,15,26,22.90
2018,07,18,15,27,22.90
2018,07,18,15,28,22.90
2018,07,18,15,29,22.90
2018,07,18,15,30,22.90
2018,07,18,15,31,22.90
2018,07,18,15,32,22.90
2018,07,18,15,33,23.00
2018,07,18,15,34,23.10
2018,07,18,15,35,23.10
2018,07,18,15,36,23.10
2018,07,18,15,37,23.10
2018,07,18,15,38,23.10
2018,07,18,15,39,23.10
2018,07,18,15,40,23.10
2018,07,18,15,41,23.00
2018,07,18,15,42,23.00
2018,07,18,15,43,23.00
2018,07,18,15,44,22.90
2018,07,18,15,45,22.90
2018,07,18,15,46,22.80
2018,07,18,15,47,22.70
2018,07,18,15,48,22.80
2018,07,18,15,49,22.80
2018,07,18,15,50,22.90
2018,07,18,15,51,23.00
2018,07,18,15,52,23.10
2018,07,18,15,53,23.20
2018,07,18,15,54,23.30
2018,07,18,15,55,23.40
2018,07,18,15,56,23.40
2018,07,18,15,57,23.50
2018,07,18,15,58,23.40
2018,07,18,15,59,23.30
2018,07,18,16,00,23.30
2018,07,18,16,01,23.30
2018,07,18,16,02,23.40
2018,07,18,16,03,23.40
2018,07,18,16,04,23.30
2018,07,18,16,05,23.30
2018,07,18,16,06,23.40
2018,07,18,16,07,23.40
2018,07,18,16,08,23.40
2018,07,18,16,09,23.50
2018,07,18,16,10,23.50
2018,07,18,16,11,23.50
2018,07,18,16,12,23.60
2018,07,18,16,13,23.60
2018,07,18,16,14,23.60
2018,07,18,16,15,23.50
2018,07,18,16,16,23.40
2018,07,18,16,17,23.30
2018,07,18,16,18,23.30
2018,07,18,16,19,23.30
2018,07,18,16,20,23.30
2018,07,18,16,21,23.30
2018,07,18,16,22,23.30
2018,07,18,16,23,23.30
2018,07,18,16,24,23.30
2018,07,18,16,25,23.30
2018,07,18,16,26,23.20
2018,07,18,16,27,23.20
2018,07,18,16,28,23.30
2018,07,18,16,29,23.30
2018,07,18,16,30,23.40
2018,07,18,16,31,23.50
2018,07,18,16,32,23.50
2018,07,18,16,33,23.60
2018,07,18,16,34,23.60
2018,07,18,16,35,23.60
2018,07,18,16,36,23.70
2018,07,18,16,37,23.70
2018,07,18,16,38,23.70
2018,07,18,16,39,23.60
2018,07,18,16,40,23.50
2018,07,18,16,41,23.40
2018,07,18,16,42,23.30
2018,07,18,16,43,23.30
2018,07,18,16,44,23.30
2018,07,18,16,45,23.20
2018,07,18,16,46,23.20
2018,07,18,16,47,23.20
2018,07,18,16,48,23.10
2018,07,18,16,49,23.20
2018,07,18,16,50,23.30
2018,07,18,16,51,23.40
2018,07,18,16,52,23.40
2018,07,18,16,53,23.50
2018,07,18,16,54,23.50
2018,07,18,16,55,23.50
2018,07,18,16,56,23.50
2018,07,18,16,57,23.60
2018,07,18,16,58,23.60
2018,07,18,16,59,23.60
2018,07,18,17,00,23.70
2018,07,18,17,01,23.60
2018,07,18,17,02,23.60
2018,07,18,17,03,23.60
2018,07,18,17,04,23.60
2018,07,18,17,05,23.60
2018,07,18,17,06,23.60
2018,07,18,17,07,23.50
2018,07,18,17,08,23.50
2018,07,18,17,09,23.40
2018,07,18,17,10,23.40
2018,07,18,17,11,23.30
2018,07,18,17,12,23.30
2018,07,18,17,13,23.30
2018,07,18,17,14,23.30
2018,07,18,17,15,23.30
2018,07,18,17,16,23.20
2018,07,18,17,17,23.20
2018,07,18,17,18,23.30
2018,07,18,17,19,23.30
2018,07,18,17,20,23.30
2018,07,18,17,21,23.30
2018,07,18,17,22,23.30